Weather Roundup
Issued by NWS

Home | Current Version | Previous Version | Text Only | Print | Product List | Glossary On
Versions: 1 2 3 4 5 6 7 8 9 10 11 12 13 14 15 16 17 18 19 20 21 22 23 24 25 26 27 28 29 30 31 32 33 34 35 36 37 38 39 40 41 42 43 44 45 46 47 48 49 50
000
NZUS93 KARX 262359
HRRWXR

CURRENT HOURLY OBSERVATIONS ACROSS
MUCH OF THE UPPER MISSISSIPPI VALLEY
NATIONAL WEATHER SERVICE LA CROSSE WI
700 PM CDT WED APR 26 2017


...SOUTHEAST MINNESOTA...


CITY           SKY/WX    TMP DP  RH WIND       PRES   REMARKS
ROCHESTER      CLOUDY    39  36  89 NW16      29.53S WCI  30
ROCHESTER/MAYO CLOUDY    39  35  85 NW13G18   29.54S WCI  31
WINONA         CLOUDY    41  36  81 NW9       29.54R
AUSTIN         CLOUDY    39  34  81 NW13G20   29.54S WCI  32
ALBERT LEA     CLOUDY    37  34  87 NW12G18   29.56S WCI  30
DODGE CENTER   CLOUDY    37  36  93 NW10      29.54S FOG     WCI  30
PRESTON        CLOUDY    38  35  86 NW14      29.53S WCI  30
OWATONNA       CLOUDY    39  34  81 NW12      29.57S WCI  32
FARIBAULT      CLOUDY    39  36  87 NW8       29.57S WCI  34
$$

...ELSEWHERE IN MINNESOTA...


CITY           SKY/WX    TMP DP  RH WIND       PRES   REMARKS
MINNEAPOLIS    CLOUDY    40  32  73 N12       29.57R WCI  33
INTNL FALLS    LGT SNOW  26  20  77 NE15G22   29.71F WCI  14
DULUTH         CLOUDY    31  28  89 N10G21    29.56S WCI  22
RED WING       CLOUDY    41  34  75 NW7       29.54F
REDWOOD FALLS  CLOUDY    35  29  78 NW16G22   29.63R WCI  25
MANKATO        CLOUDY    37  32  82 NW13      29.59S WCI  29
WORTHINGTON    CLOUDY    33  29  85 NW17      29.63S WCI  22
FAIRMONT       CLOUDY    36  33  89 NW20      29.61R WCI  25
$$

...SOUTHWEST WISCONSIN...


CITY           SKY/WX    TMP DP  RH WIND       PRES   REMARKS
LA CROSSE      CLOUDY    45  40  82 W13       29.52R
PRAIRIE DU CHI CLOUDY    47  41  79 W10       29.53R
BOSCOBEL       CLOUDY    49  44  83 W8        29.52R
LONE ROCK      CLOUDY    50  48  93 W10       29.49R FOG
PLATTEVILLE    CLOUDY    49  49 100 SW9       29.51R
FORT MC COY    CLOUDY    44  41  91 W8        29.51R
MAUSTON-NEW LI CLOUDY    48  45  90 NW9       29.47S FOG
VIROQUA        CLOUDY    44  42  94 W8        29.50F
WIS DELLS      CLOUDY    53  51  92 W8        29.45F FOG
$$

...ELSEWHERE IN WISCONSIN...


CITY           SKY/WX    TMP DP  RH WIND       PRES   REMARKS
MILWAUKEE      CLOUDY    67  54  63 SW15      29.45F
MADISON        CLOUDY    54  50  86 SW9       29.47R
GREEN BAY      MOCLDY    66  59  78 S9        29.40F
EAU CLAIRE     NOT AVBL
BLACK RVR FLS  CLOUDY    43  42  96 W10       29.51R
MEDFORD        CLOUDY    40  39  97 W9        29.46R FOG     WCI  33
WAUSAU         CLOUDY    46  44  93 W13       29.44R
WIS RAPIDS     CLOUDY    46  44  93 NW10      29.48S
MARSHFIELD     CLOUDY    42  39  89 W12       29.47R
RICE LAKE      DRIZZLE   36  35  93 N8        29.56R WCI  30
$$

...NORTHEAST IOWA...


CITY           SKY/WX    TMP DP  RH WIND       PRES   REMARKS
WATERLOO       CLOUDY    45  37  73 NW15      29.54S
DUBUQUE        CLOUDY    48  43  82 W9        29.52R
DECORAH        CLOUDY    43  39  87 NW8G14    29.52R
MASON CITY     CLOUDY    40  35  83 NW16      29.57S WCI  31
CHARLES CITY   CLOUDY    43  39  87 NW15G22   29.55R
OELWEIN        CLOUDY    45  41  87 NW14      29.54S
$$

...ELSEWHERE IN IOWA...


CITY           SKY/WX    TMP DP  RH WIND       PRES   REMARKS
DES MOINES     CLOUDY    46  37  71 NW15      29.60R
IOWA CITY      CLOUDY    51  41  68 NW10      29.54F
FORT DODGE     CLOUDY    41  32  70 NW12G20   29.60S
MARSHALLTOWN   CLOUDY    45  38  76 NW12      29.56S
CEDAR RAPIDS   CLOUDY    47  42  83 NW15      29.52F
$$

...NORTHERN ILLINOIS...


CITY           SKY/WX    TMP DP  RH WIND       PRES   REMARKS
CHICAGO-OHARE  MOCLDY    67  57  70 W7        29.44F
CHICAGO-MIDWAY MOCLDY    70  57  63 W6        29.43F
MOLINE         LGT RAIN  51  46  83 W9        29.51S
ROCKFORD       CLOUDY    55  52  89 W6        29.50F
PEORIA         CLOUDY    55  53  93 N3        29.49S
$$

NOTE: "FAIR" INDICATES FEW OR NO CLOUDS BELOW 12,000 FEET WITH NO
SIGNIFICANT WEATHER AND/OR OBSTRUCTIONS TO VISIBILITY. WIND
SPEEDS ARE IN MILES-PER-HOUR.




USA.gov is the U.S. government's official web portal to all federal, state and local government web resources and services.